NOAA 16 DEB, 41276

Orbit data source: Space-Track

NOAA 16 DEB, 41276 is space debris in SSO originally from a launch on Thu, 21 Sep 2000 UTC launched from the Air Force Western Test Range (AFWTR). Debris objects in space refer to the collection of defunct objects orbiting the Earth. Examples of debris include non-operational satellites, rocket bodies, and fragments generated from explosions, collisions, or faulty payload assembly.

Loading next visibility...
Identifier
41276, 2000-055GC
Orbit
SSO
Country
Flag of USUS
Related business
Manufacturer
Unknown
Mission
Spacecraft
Bus & Motor
Unknown
Mass
Unknown
Launch date (UTC)
2000-09-21 (25 years ago)
Launch vehicle
Unknown
Launch site
Air Force Western Test Range (AFWTR)
Object type
Payload
Rocket body
Debris
Shape & HBR
Unknown shape, 0.1 m
Radar Cross Section
Small (<0.1 m²)

Expand to show TLE details & history
Last TLE update: 2 days ago

TLE from 2 days ago
0 NOAA 16 DEB
1 41276U 00055GC  26035.40211954  .00003357  00000-0  14963-2 0  9995
2 41276  98.6568  87.3028 0014862 175.1973 184.9351 14.23400283522126
Epoch: 2026-02-04T09:39Z
TLE epoch observation values (Epoch: 2026-02-04T09:39:03.128Z)
Latitude
0.00002°
Longitude
167.97055°
Altitude
827.448 km
Speed
7.434 km/s
True Right ascension
05h 49m 12s
True Declination
0° 00' 00"
Sunlit
Object was in full shadow at epoch
Visualization orbit readout
Latitude
Unknown
Longitude
Unknown
Altitude
Unknown
Speed
Unknown
Apparent Right ascension
Unknown
Apparent Declination
Unknown
Sunlit
N/A
Visualization observer readout
Local Sidereal Time
22:40:43
Azimuth
Unknown
Elevation
Unknown
Doppler factor
Unknown
Orbital elements
Apogee altitude
821.712 km
Perigee altitude
800.343 km
Semi-major axis
7,189.165 km
Eccentricity
0.00149
Inclination
98.6568°
RAAN
87.3028°
Arg. of periapsis
175.1973°
True anomaly
184.92048°
Mean anomaly
184.9351°
Eccentric anomaly
184.92779°
Mean motion
3.56062 °/min
Orbital period
101.11 mins
BSTAR
0.0014963
Loading maneuver chart data...
Computing Atmospheric mass density...
Loading historical data...
Loading historical data...
Loading historical data...
Loading historical data...
Loading historical data...
Loading historical data...
Loading historical data...

Documentation

Showing up to 5 results
|